TimeCST,TemperatureF,Dew PointF,Humidity,Sea Level PressureIn,VisibilityMPH,Wind Direction,Wind SpeedMPH,Gust SpeedMPH,PrecipitationIn,Events,Conditions,WindDirDegrees,DateUTC
12:15 AM,39.2,30.2,70,30.25,10.0,North,16.1,24.2,N/A,,Overcast,10,2012-11-27 06:15:00
12:35 AM,39.2,30.2,70,30.27,10.0,NNE,11.5,19.6,N/A,,Overcast,30,2012-11-27 06:35:00
12:56 AM,39.2,30.2,70,30.27,10.0,NNE,11.5,20.7,N/A,,Overcast,20,2012-11-27 06:56:00
1:15 AM,39.2,30.2,70,30.28,10.0,North,11.5,17.3,N/A,,Overcast,360,2012-11-27 07:15:00
1:35 AM,39.2,28.4,65,30.28,10.0,North,12.7,17.3,N/A,,Overcast,10,2012-11-27 07:35:00
1:55 AM,39.2,28.4,65,30.29,10.0,North,13.8,17.3,N/A,,Overcast,10,2012-11-27 07:55:00
2:15 AM,39.2,28.4,65,30.29,10.0,North,10.4,19.6,N/A,,Overcast,360,2012-11-27 08:15:00
2:35 AM,37.4,28.4,70,30.29,10.0,North,13.8,-,N/A,,Overcast,10,2012-11-27 08:35:00
2:56 AM,37.4,26.6,65,30.30,10.0,North,11.5,-,N/A,,Scattered Clouds,10,2012-11-27 08:56:00
3:15 AM,37.4,26.6,65,30.30,10.0,North,11.5,-,N/A,,Mostly Cloudy,10,2012-11-27 09:15:00
3:35 AM,37.4,24.8,60,30.30,10.0,North,12.7,-,N/A,,Partly Cloudy,10,2012-11-27 09:35:00
4:15 AM,35.6,23.0,60,30.31,10.0,North,10.4,-,N/A,,Clear,10,2012-11-27 10:15:00
4:35 AM,35.6,23.0,60,30.31,10.0,North,10.4,17.3,N/A,,Clear,10,2012-11-27 10:35:00
4:55 AM,33.8,23.0,65,30.31,10.0,NNE,11.5,-,N/A,,Clear,30,2012-11-27 10:55:00
5:16 AM,33.8,21.2,60,30.32,10.0,North,8.1,-,N/A,,Clear,10,2012-11-27 11:16:00
5:35 AM,33.8,21.2,60,30.32,10.0,North,9.2,16.1,N/A,,Clear,10,2012-11-27 11:35:00
6:35 AM,32.0,21.2,64,30.34,10.0,North,10.4,-,N/A,,Clear,10,2012-11-27 12:35:00
6:55 AM,32.0,21.2,64,30.34,10.0,North,9.2,-,N/A,,Clear,10,2012-11-27 12:55:00
7:15 AM,32.0,21.2,64,30.35,10.0,North,11.5,-,N/A,,Clear,10,2012-11-27 13:15:00
7:35 AM,32.0,21.2,64,30.37,10.0,North,8.1,-,N/A,,Clear,360,2012-11-27 13:35:00
7:55 AM,32.0,21.2,64,30.38,10.0,North,10.4,-,N/A,,Clear,10,2012-11-27 13:55:00
8:15 AM,33.8,21.2,60,30.39,10.0,North,9.2,-,N/A,,Clear,10,2012-11-27 14:15:00
8:36 AM,33.8,21.2,60,30.39,10.0,NNE,10.4,16.1,N/A,,Clear,20,2012-11-27 14:36:00
8:55 AM,33.8,23.0,65,30.40,10.0,NNE,13.8,-,N/A,,Clear,20,2012-11-27 14:55:00
9:35 AM,35.6,24.8,65,30.40,10.0,NNE,12.7,-,N/A,,Clear,30,2012-11-27 15:35:00
9:55 AM,37.4,24.8,60,30.41,10.0,NNE,10.4,-,N/A,,Clear,30,2012-11-27 15:55:00
10:35 AM,39.2,26.6,61,30.40,10.0,NNE,11.5,-,N/A,,Clear,30,2012-11-27 16:35:00
11:15 AM,41.0,26.6,57,30.39,10.0,NNE,11.5,-,N/A,,Clear,20,2012-11-27 17:15:00
11:55 AM,42.8,26.6,53,30.38,10.0,North,9.2,-,N/A,,Clear,10,2012-11-27 17:55:00
12:15 PM,42.8,28.4,57,30.38,10.0,NNE,8.1,-,N/A,,Clear,30,2012-11-27 18:15:00
12:55 PM,44.6,28.4,53,30.37,10.0,North,4.6,-,N/A,,Clear,350,2012-11-27 18:55:00
1:15 PM,44.6,28.4,53,30.36,10.0,North,6.9,-,N/A,,Clear,350,2012-11-27 19:15:00
1:35 PM,44.6,28.4,53,30.35,10.0,NNW,5.8,-,N/A,,Clear,340,2012-11-27 19:35:00
1:55 PM,44.6,28.4,53,30.35,10.0,NNW,8.1,-,N/A,,Clear,330,2012-11-27 19:55:00
2:15 PM,44.6,28.4,53,30.35,10.0,NNW,5.8,-,N/A,,Clear,330,2012-11-27 20:15:00
2:35 PM,44.6,28.4,53,30.35,10.0,NNW,8.1,-,N/A,,Clear,330,2012-11-27 20:35:00
2:56 PM,44.6,28.4,53,30.35,10.0,NNW,6.9,-,N/A,,Clear,340,2012-11-27 20:56:00
3:15 PM,42.8,28.4,57,30.35,10.0,NNW,5.8,-,N/A,,Clear,330,2012-11-27 21:15:00
3:35 PM,42.8,28.4,57,30.36,10.0,North,4.6,-,N/A,,Clear,350,2012-11-27 21:35:00
3:55 PM,42.8,26.6,53,30.36,10.0,NNW,5.8,-,N/A,,Clear,340,2012-11-27 21:55:00
4:15 PM,42.8,26.6,53,30.36,10.0,NNW,6.9,-,N/A,,Clear,330,2012-11-27 22:15:00
4:35 PM,41.0,26.6,57,30.37,10.0,NNW,6.9,-,N/A,,Clear,340,2012-11-27 22:35:00
5:15 PM,39.2,24.8,56,30.36,10.0,North,3.5,-,N/A,,Clear,350,2012-11-27 23:15:00
6:16 PM,35.6,24.8,65,30.37,10.0,Calm,Calm,-,N/A,,Clear,0,2012-11-28 00:16:00
6:35 PM,35.6,23.0,60,30.37,10.0,North,3.5,-,N/A,,Clear,350,2012-11-28 00:35:00
6:55 PM,35.6,24.8,65,30.37,10.0,Calm,Calm,-,N/A,,Clear,0,2012-11-28 00:55:00
7:15 PM,33.8,24.8,70,30.37,10.0,Calm,Calm,-,N/A,,Clear,0,2012-11-28 01:15:00
7:35 PM,33.8,24.8,70,30.38,10.0,Calm,Calm,-,N/A,,Clear,0,2012-11-28 01:35:00
7:55 PM,33.8,23.0,65,30.38,9.0,Calm,Calm,-,N/A,,Clear,0,2012-11-28 01:55:00
8:15 PM,32.0,21.2,64,30.38,10.0,Calm,Calm,-,N/A,,Clear,0,2012-11-28 02:15:00
8:55 PM,30.2,21.2,69,30.38,8.0,Calm,Calm,-,N/A,,Clear,0,2012-11-28 02:55:00
9:15 PM,30.2,21.2,69,30.38,7.0,Calm,Calm,-,N/A,,Clear,0,2012-11-28 03:15:00
9:35 PM,30.2,23.0,75,30.37,7.0,Calm,Calm,-,N/A,,Clear,0,2012-11-28 03:35:00
10:15 PM,30.2,21.2,69,30.38,5.0,Calm,Calm,-,N/A,,Clear,0,2012-11-28 04:15:00
10:35 PM,30.2,21.2,69,30.39,5.0,Calm,Calm,-,N/A,,Clear,0,2012-11-28 04:35:00
11:15 PM,30.2,21.2,69,30.39,4.0,Calm,Calm,-,N/A,,Clear,0,2012-11-28 05:15:00
11:35 PM,30.2,21.2,69,30.40,7.0,Calm,Calm,-,N/A,,Clear,0,2012-11-28 05:35:00
11:55 PM,30.2,21.2,69,30.40,5.0,Calm,Calm,-,N/A,,Clear,0,2012-11-28 05:55:00